Regional Weather Roundup
Issued by NWS

Home | Current Version | Previous Version | Text Only | Print | Product List | Glossary On
Versions: 1 2 3 4 5 6 7 8 9 10 11 12 13 14 15 16 17 18 19 20 21 22 23 24 25 26 27
000
ASUS45 KBOU 241207
RWRCO

WEATHER ROUNDUP FOR COLORADO
NATIONAL WEATHER SERVICE DENVER/BOULDER CO
600 AM MDT WED MAY 24 2017

NOTE: "FAIR" INDICATES FEW OR NO CLOUDS BELOW 12000 FEET WITH NO
SIGNIFICANT WEATHER AND/OR OBSTRUCTIONS TO VISIBILITY.

COZ001>005-013-030-031-241300-
...NORTHWEST COLORADO...

CITY           SKY/WX    TMP DP  RH WIND       PRES   REMARKS
CRAIG          FAIR      33  30  88 CALM      30.02F
HAYDEN         FAIR      37  28  70 E10       30.03F
MEEKER         FAIR      37  32  82 E3        30.05F
RABBIT EARS PA FAIR      34  32  93 W13G21    30.17S WCI  25
STEAMBOAT SPGS FAIR      32  30  94 CALM      30.05F
WALDEN           N/A     34  27  75 SE3       30.07S
$$

COZ006>008-011-241300-
...WEST CENTRAL VALLEYS...

CITY           SKY/WX    TMP DP  RH WIND       PRES   REMARKS
GRAND JUNCTION FAIR      50  33  52 E10       29.98F
MONTROSE       FAIR      43  32  65 SE8       30.06S
EAGLE          FAIR      33  29  85 SE5       30.11F WCI  29
RIFLE          FAIR      39  30  70 CALM      30.05F
DELTA          FAIR      46  32  59 N8        30.03S
NUCLA          FAIR      45  32  61 SE5       30.10S
$$

COZ017>023-064>068-241300-
...SOUTHWEST COLORADO...

CITY           SKY/WX    TMP DP  RH WIND       PRES   REMARKS
DURANGO        FAIR      39  22  50 CALM      30.08S
CORTEZ         FAIR      36  32  85 E6        30.06F
PAGOSA SPRINGS FAIR      36  24  62 CALM      30.13S
TELLURIDE      FAIR      40  31  70 SE7       30.22S
WOLF CREEK PAS FAIR      34  27  75 NW6       30.34F WCI  29
$$

COZ009-010-012-014-032>034-037-058>063-241300-
...CENTRAL COLORADO...

CITY           SKY/WX    TMP DP  RH WIND       PRES   REMARKS
ASPEN          FAIR      34  28  79 CALM      30.10F
BUENA VISTA    FAIR      34  26  72 NE3       30.07S
COPPER MTN     FAIR      34  27  75 W9        30.24F WCI  26
BERTHOUD PASS  FAIR      28  18  64 NW37G48   30.18F WCI  11
COTTONWOOD PAS FAIR      45  27  49 NW13G18   30.14S
GUNNISON       FAIR      31  25  78 CALM      30.14
KREMMLING      FAIR      34  32  93 CALM      30.11F
LEADVILLE      FAIR      34  24  67 VRB5      30.14F WCI  30
MONARCH PASS   FAIR      32  23  69 W35G43    30.33F WCI  17
SALIDA         FAIR      37  24  59 W5        30.13F
SUNLIGHT       FAIR      34  27  75 SW9       30.25F WCI  26
WILKERSON PASS FAIR      36  25  64 NW12G21   30.20F
$$

COZ069>075-241300-
...SAN LUIS VALLEY/SANGRE DE CRISTO MOUNTAINS...

CITY           SKY/WX    TMP DP  RH WIND       PRES   REMARKS
ALAMOSA        FAIR      34  24  67 SW3       30.09F
DEL NORTE      FAIR      35  20  54 SW5       30.11F WCI  30
LA VETA PASS   FAIR      34  19  55 SW23G31   30.25S WCI  22
SAGUACHE       FAIR      37  23  56 E7        30.10S
$$

COZ035-036-038>040-241300-
...NORTHERN COLORADO FRONT RANGE...

CITY           SKY/WX    TMP DP  RH WIND       PRES   REMARKS
DENVER INTL AP FAIR      38  33  82 S9        29.86F
DMNS CITY PARK   N/A     42  34  74 S6        29.85F
AURORA         PTCLDY    43  31  63 S8        29.87F
FRONT RANGE AP FAIR      41  36  81 S10       29.87F
ERIE MUNI ARPT FAIR      38  36  94 CALM      29.85F
BOULDER MUN AP FAIR      41  36  81 CALM      29.85F
CENTENNIAL     FAIR      45  32  60 S9        29.87F
BROOMFIELD     FAIR      41  34  75 SW3       29.86F
FORT COLLINS   FAIR      40  36  86 N3        29.87F
LONGMONT       FAIR      42  35  78 W3        29.87F
$$

COZ041-046-047-076>085-087-088-241300-
...PIKES PEAK/PALMER DIVIDE AND SOUTHERN FOOTHILLS...

CITY           SKY/WX    TMP DP  RH WIND       PRES   REMARKS
COLO. SPRINGS  FAIR      39  32  76 N8        29.94F
A. F. ACADEMY  FAIR      33  30  89 N8        29.93F WCI  26
SCHRIEVER AFB  FAIR      41  32  70 W3        29.94F
CHEYENNE MTN   FAIR      44  29  56 CALM      29.90F
ELLICOTT       FAIR     N/A N/A N/A CALM      29.92F
FALCON         FAIR      37  31  77 W6        29.96F
FORT CARSON    FAIR      38  32  78 NW8       29.92F
LIMON          FAIR      30  29  96 CALM      29.90F
MONUMENT HILL  FAIR      37  30  75 SW12      29.95F
CANON CITY     NOT AVBL
WALSENBURG     NOT AVBL
TRINIDAD       FAIR      45  32  60 W17       29.94F
$$

COZ042>045-048>051-090-091-241300-
...NORTHEAST COLORADO...

CITY           SKY/WX    TMP DP  RH WIND       PRES   REMARKS
GREELEY ARPT   FAIR      38  35  89 CALM      29.87F
AKRON          FAIR      39  32  76 S8        29.87F
BURLINGTON     FAIR      35  33  92 W5        29.89F WCI  31
WRAY           FAIR      34  34 100 CALM      29.89F
YUMA           FAIR      32  32 100 CALM      29.87F
STERLING       FAIR      34  34 100 S3        29.85F
HOLYOKE        NOT AVBL
FORT MORGAN    FAIR      36  32  87 CALM      29.87F
$$

COZ086-089-092>099-241300-
...SOUTHEAST COLORADO...

CITY           SKY/WX    TMP DP  RH WIND       PRES   REMARKS
PUEBLO         FAIR      39  35  86 CALM      29.90F
LA JUNTA       FAIR      42  37  82 W7        29.90F
LAMAR          FAIR      37  34  89 SW5       29.89F
SPRINGFIELD      N/A     39  35  86 CALM      29.92F
$$




USA.gov is the U.S. government's official web portal to all federal, state and local government web resources and services.